Date String (YYYY-MM-DD hh:mm:ss) UTC,Instrument flags,Ambient pressure (hPa),Sample flow (lpm),Bypass flow (lpm),Sample temperature (°C),Ambient temperature (°C),ASC tube jacket temperature (°C),LED temperature (°C),Box temperature (°C),Sample RH (%),Span deviation,Mass concentration (μg/m³),Mass concentration (μg/m³),Mass concentration (μg/m³)
DateTimeUTC,F1_M11,P_M11,Q1_M11,Q2_M11,T1_M11,T2_M11,T3_M11,T4_M11,T5_M11,U1_M11,ZSPAN_M11,X2_M11,X0_M11,X1_M11
2023-05-16 04:00:00,,0837.6,4.99,0.00,27.6,25.8,00.0,36.1,29.2,27.2,0000.0,0003.53,0005.08,0003.22
2023-05-16 04:01:00,,0837.6,5.01,0.00,27.6,25.9,00.0,36.1,29.2,27.2,0000.0,0003.51,0005.03,0003.21
2023-05-16 04:02:00,,0837.6,5.00,0.00,27.6,25.9,00.0,36.1,29.2,27.2,0000.0,0003.48,0004.89,0003.20
2023-05-16 04:03:00,,0837.7,5.00,0.00,27.6,26.0,00.0,36.1,29.3,27.1,0000.0,0003.47,0004.89,0003.19
2023-05-16 04:04:00,,0837.7,5.01,0.00,27.7,26.0,00.0,36.1,29.3,27.1,0000.0,0003.44,0004.76,0003.18
2023-05-16 04:05:00,,0837.7,5.01,0.00,27.7,26.1,00.0,36.1,29.3,27.0,0000.0,0003.45,0004.79,0003.18
2023-05-16 04:06:00,,0837.6,5.01,0.00,27.7,26.1,00.0,36.1,29.3,27.0,0000.0,0003.43,0004.68,0003.17
2023-05-16 04:07:00,,0837.6,5.00,0.00,27.7,26.1,00.0,36.1,29.4,27.0,0000.0,0003.41,0004.60,0003.17
2023-05-16 04:08:00,,0837.6,4.99,0.00,27.7,26.2,00.0,36.1,29.4,27.1,0000.0,0003.36,0004.48,0003.16
2023-05-16 04:09:00,,0837.6,5.00,0.00,27.7,26.2,00.0,36.1,29.4,27.0,0000.0,0003.36,0004.61,0003.15
2023-05-16 04:10:00,,0837.6,5.00,0.00,27.8,26.3,00.0,36.1,29.4,27.2,0000.0,0003.35,0004.69,0003.14
2023-05-16 04:11:00,,0837.6,5.00,0.00,27.8,26.4,00.0,36.1,29.5,27.3,0000.0,0003.36,0004.94,0003.15
2023-05-16 04:12:00,,0837.6,4.99,0.00,27.8,26.4,00.0,36.2,29.5,27.2,0000.0,0003.36,0005.12,0003.15
2023-05-16 04:13:00,,0837.6,4.99,0.00,27.9,26.5,00.0,36.2,29.5,27.0,0000.0,0003.41,0005.98,0003.16
2023-05-16 04:14:00,,0837.6,5.00,0.00,27.9,26.5,00.0,36.2,29.6,26.9,0000.0,0003.44,0006.35,0003.17
2023-05-16 04:15:00,,0837.6,5.00,0.00,27.9,26.5,00.0,36.2,29.6,26.5,0000.0,0003.48,0006.47,0003.18
2023-05-16 04:16:00,,0837.5,5.00,0.00,27.9,26.4,00.0,36.2,29.5,26.3,0000.0,0003.49,0006.51,0003.19
2023-05-16 04:17:00,,0837.6,5.01,0.00,27.9,26.4,00.0,36.2,29.5,26.2,0000.0,0003.52,0006.56,0003.20
2023-05-16 04:18:00,,0837.6,4.98,0.00,27.9,26.3,00.0,36.2,29.5,26.5,0000.0,0003.51,0006.51,0003.20
2023-05-16 04:19:00,,0837.6,5.00,0.00,27.9,26.3,00.0,36.2,29.5,26.5,0000.0,0003.52,0006.48,0003.21
2023-05-16 04:20:00,,0837.6,5.00,0.00,27.9,26.3,00.0,36.2,29.5,26.5,0000.0,0003.56,0006.57,0003.22
2023-05-16 04:21:00,,0837.6,5.01,0.00,27.9,26.3,00.0,36.2,29.5,26.4,0000.0,0003.61,0006.73,0003.24
2023-05-16 04:22:00,,0837.6,5.00,0.00,27.9,26.3,00.0,36.2,29.5,26.7,0000.0,0003.64,0006.64,0003.25
2023-05-16 04:23:00,,0837.6,5.00,0.00,27.9,26.4,00.0,36.2,29.6,26.9,0000.0,0003.65,0006.50,0003.26
2023-05-16 04:24:00,,0837.6,5.00,0.00,27.9,26.4,00.0,36.3,29.6,27.1,0000.0,0003.64,0005.83,0003.25
2023-05-16 04:25:00,,0837.5,5.00,0.00,27.9,26.5,00.0,36.3,29.6,27.0,0000.0,0003.63,0005.48,0003.25
2023-05-16 04:26:00,,0837.5,5.00,0.00,28.0,26.6,00.0,36.3,29.6,27.2,0000.0,0003.61,0005.35,0003.26
2023-05-16 04:27:00,,0837.4,5.00,0.00,28.0,26.6,00.0,36.3,29.7,27.4,0000.0,0003.60,0005.32,0003.27
2023-05-16 04:28:00,,0837.4,5.00,0.00,28.0,26.7,00.0,36.3,29.7,27.5,0000.0,0003.61,0005.84,0003.29
2023-05-16 04:29:00,,0837.4,4.99,0.00,28.1,26.7,00.0,36.3,29.7,27.3,0000.0,0003.62,0005.84,0003.30
2023-05-16 04:30:00,,0837.3,4.99,0.00,28.1,26.8,00.0,36.3,29.7,27.3,0000.0,0003.65,0005.93,0003.32
2023-05-16 04:31:00,,0837.3,5.00,0.00,28.1,26.8,00.0,36.3,29.8,27.1,0000.0,0003.66,0005.83,0003.33
2023-05-16 04:32:00,,0837.2,5.00,0.00,28.1,26.8,00.0,36.4,29.8,26.9,0000.0,0003.63,0005.62,0003.34
2023-05-16 04:33:00,,0837.3,5.01,0.00,28.2,26.8,00.0,36.4,29.8,26.6,0000.0,0003.63,0005.76,0003.34
2023-05-16 04:34:00,,0837.2,5.00,0.00,28.2,26.9,00.0,36.4,29.8,26.5,0000.0,0003.68,0006.12,0003.34
2023-05-16 04:35:00,,0837.2,4.98,0.00,28.2,26.8,00.0,36.4,29.8,26.5,0000.0,0003.69,0006.27,0003.36
2023-05-16 04:36:00,,0837.2,5.00,0.00,28.2,26.8,00.0,36.4,29.8,26.5,0000.0,0003.70,0006.41,0003.36
2023-05-16 04:37:00,,0837.2,5.00,0.00,28.2,26.7,00.0,36.4,29.8,26.5,0000.0,0003.71,0006.48,0003.36
2023-05-16 04:38:00,,0837.2,5.01,0.00,28.2,26.6,00.0,36.5,29.8,26.3,0000.0,0003.73,0006.90,0003.36
2023-05-16 04:39:00,,0837.2,5.00,0.00,28.1,26.6,00.0,36.5,29.7,26.3,0000.0,0003.72,0006.61,0003.36
2023-05-16 04:40:00,,0837.2,5.00,0.00,28.1,26.5,00.0,36.5,29.7,26.2,0000.0,0003.71,0006.62,0003.35
2023-05-16 04:41:00,,0837.2,5.00,0.00,28.1,26.5,00.0,36.5,29.7,26.3,0000.0,0003.69,0006.55,0003.35
2023-05-16 04:42:00,,0837.3,5.00,0.00,28.1,26.5,00.0,36.5,29.7,26.7,0000.0,0003.66,0006.61,0003.34
2023-05-16 04:43:00,,0837.4,5.00,0.00,28.1,26.5,00.0,36.5,29.8,27.2,0000.0,0003.71,0007.10,0003.36
2023-05-16 04:44:00,,0837.2,5.00,0.00,28.1,26.6,00.0,36.5,29.8,27.6,0000.0,0003.76,0007.35,0003.40
2023-05-16 04:45:00,,0837.2,4.99,0.00,28.1,26.6,00.0,36.5,29.8,27.7,0000.0,0003.81,0007.29,0003.46
2023-05-16 04:46:00,,0837.2,5.00,0.00,28.2,26.6,00.0,36.5,29.8,27.8,0000.0,0003.87,0007.40,0003.53
2023-05-16 04:47:00,,0837.3,5.00,0.00,28.2,26.7,00.0,36.5,29.8,27.9,0000.0,0003.99,0007.49,0003.63
2023-05-16 04:48:00,,0837.3,4.99,0.00,28.2,26.7,00.0,36.5,29.8,28.0,0000.0,0004.14,0007.67,0003.76
2023-05-16 04:49:00,,0837.3,5.00,0.00,28.2,26.8,00.0,36.5,29.8,28.0,0000.0,0004.25,0007.64,0003.87
2023-05-16 04:50:00,,0837.3,5.00,0.00,28.2,26.8,00.0,36.5,29.9,28.0,0000.0,0004.35,0007.56,0003.97
2023-05-16 04:51:00,,0837.5,5.00,0.00,28.2,26.8,00.0,36.5,29.9,28.0,0000.0,0004.44,0007.63,0004.05
2023-05-16 04:52:00,,0837.2,5.01,0.00,28.2,26.8,00.0,36.5,29.9,28.2,0000.0,0004.58,0007.80,0004.19
2023-05-16 04:53:00,,0837.2,5.01,0.00,28.3,26.8,00.0,36.5,29.9,28.0,0000.0,0004.67,0007.81,0004.27
2023-05-16 04:54:00,,0837.3,5.00,0.00,28.3,26.9,00.0,36.6,29.9,28.0,0000.0,0004.69,0007.62,0004.30
2023-05-16 04:55:00,,0837.2,5.00,0.00,28.3,26.9,00.0,36.6,29.9,28.0,0000.0,0004.73,0007.60,0004.32
2023-05-16 04:56:00,,0837.2,5.00,0.00,28.3,26.9,00.0,36.6,29.9,28.1,0000.0,0004.76,0008.00,0004.33
2023-05-16 04:57:00,,0837.3,5.00,0.00,28.3,26.9,00.0,36.6,29.9,28.1,0000.0,0004.77,0007.98,0004.34
2023-05-16 04:58:00,,0837.3,4.98,0.00,28.3,27.0,00.0,36.6,30.0,28.2,0000.0,0004.72,0008.06,0004.32
2023-05-16 04:59:00,,0837.3,5.01,0.00,28.3,27.0,00.0,36.6,30.0,28.2,0000.0,0004.69,0008.29,0004.29
